Regional Weather Roundup
Issued by NWS

Home | Current Version | Previous Version | Graphics & Text | Print | Product List | Glossary On
Versions: 1 2 3 4 5 6 7 8 9 10 11 12 13 14 15 16 17 18 19 20 21 22 23 24 25 26 27 28 29 30 31 32 33 34 35 36 37 38 39 40 41 42 43 44 45 46 47 48 49 50
000
ASUS45 KCYS 041610
RWRWY

WYOMING REGIONAL WEATHER ROUNDUP
NATIONAL WEATHER SERVICE CHEYENNE WY
1000 AM MDT TUE AUG 04 2015

NOTE:  "FAIR" INDICATES FEW OR NO CLOUDS BELOW 12,000 FEET
WITH NO SIGNIFICANT WEATHER AND/OR OBSTRUCTIONS TO VISIBILITY.

WYZ001-041700-
YELLOWSTONE NATIONAL PARK

CITY           SKY/WX    TMP DP  RH WIND       PRES   REMARKS
LK YELLOWSTONE   N/A     54  49  83 CALM      30.30S
W YELLOWSTONE  NOT AVBL

$$
WYZ002>013-054>058-071-098>099-041700-
NORTHERN WYOMING

CITY           SKY/WX    TMP DP  RH WIND       PRES   REMARKS
JACKSON        MOSUNNY   57  54  88 CALM      30.23R
CODY           CLOUDY    68  50  52 W6        30.08S
GREYBULL       PTSUNNY   70  52  52 SE5       29.97S
WORLAND        CLOUDY    70  53  54 W5        29.99S
SHERIDAN       FAIR      77  50  38 VRB3      29.95S
BUFFALO        FAIR      74  50  42 CALM      30.01F
GILLETTE         N/A     75  57  53 SW10      29.97F
HULETT         FAIR      73  55  53 S9        30.01S
NEWCASTLE      FAIR      70  55  60 MISG        N/A

$$
WYZ014>020-022>026-101>103-041700-
CENTRAL WYOMING

CITY           SKY/WX    TMP DP  RH WIND       PRES   REMARKS
BIG PINEY      FAIR      64  49  57 N12       30.25S
PINEDALE       CLOUDY    61  50  67 NW15G21   30.25R
DUBOIS         CLOUDY    59  45  58 W16G24    30.21S
LANDER         PTSUNNY   66  56  70 SE3       30.09R
RIVERTON       FAIR      67  55  65 VRB3      30.09S
CASPER         CLOUDY    65  54  67 S16       30.06S
DOUGLAS        PTSUNNY   71  52  50 VRB3      30.04F

$$
WYZ021-027>030-104>119-041700-
SOUTHERN WYOMING

CITY           SKY/WX    TMP DP  RH WIND       PRES   REMARKS
EVANSTON       FAIR      62  49  62 SW10      30.29S
KEMMERER       FAIR      59  50  72 W7        30.30S
FORT BRIDGER   SUNNY     66  50  55 W8        30.31F
ROCK SPRINGS   FAIR      61  49  64 SW18      30.24S
DIXON          CLOUDY    64  48  56 W7        30.26S
RAWLINS        PTSUNNY   59  50  72 W20G28    30.18R
SARATOGA       PTSUNNY   59  46  63 W21G30    30.22S
LARAMIE        CLOUDY    58  48  69 W13       30.19F
CHEYENNE       LGT RAIN  64  50  60 W14       30.14S
TORRINGTON     FAIR      75  53  46 W7        29.99F
PINE BLUFFS    FAIR      72  45  37 CALM      30.08F

$$



USA.gov is the U.S. government's official web portal to all federal, state and local government web resources and services.